User: anonymous   Login
Location: Unspecified
(0.0000°N, 0.0000°E)
Time: 13:13:35
(UTC+00:00)
Language:

HO-68 - Orbit

View from above orbital plane
View from above orbital plane
View from above satellite
View from above satellite

Ground track
Ground track

The orbit data is extracted from the following two-line orbital elements,

1 36122U 09072B   18199.93459159 -.00000045 +00000-0 -79723-5 0  9999
2 36122 100.0743 213.0835 0008021 043.6991 316.4757 13.16345339412723
Epoch (UTC): 18 July 2018 22:25:48
Eccentricity: 0.0008021
inclination: 100.0743°
perigee height: 1192 km
apogee height: 1205 km
right ascension of ascending node: 213.0835°
argument of perigee: 43.6991°
revolutions per day: 13.16345339
mean anomaly at epoch: 316.4757°
orbit number at epoch: 41272

The dashed part of the orbit path shows where the satellite is in the earth's shadow,  

DLR